Location: Unspecified
(0.0000°N, 0.0000°E)
Time: 16:43:21
(UTC+00:00)

Vanguard 3 - Pass Details

Date: 02 February 2023
Orbit: 509 x 3249 km, 33.3° (Epoch: 20 March)

Event Time Altitude Azimuth Distance (km) Brightness Sun altitude
Rises 00:02:11 0° 320° (NW) 6,530 - -72.8°
Reaches altitude 10° 00:07:05 10° 329° (NNW) 5,798 - -73.0°
Maximum altitude 00:23:29 34° 28° (NNE) 4,464 - -72.9°
Exits shadow 00:38:24 12° 85° (E) 5,556 11.3 -72.0°
Drops below altitude 10° 00:39:21 10° 87° (E) 5,689 11.4 -71.9°
Sets 00:43:58 0° 96° (E) 6,407 11.8 -71.5°
